カタログに戻る

SCATSAT 1

運用中気象SSO
NORAD 41790·PAYLOAD·🇮🇳 India

打ち上げ Sep 26, 2016 から Satish Dhawan Space Centre

Loading…

次のパス (今後24時間)

TLE

最新Source: Space-Track

元期: Sep 13, 2026, 17:39 UTC

1 41790U 16059H   26256.73552014  .00000719  00000-0  10106-3 0  9998
2 41790  98.1107 321.3832 0053556 323.7297  36.0287 14.79701753114688

AllMySatでSCATSAT 1をリアルタイム追跡

Download on the App Store